Date,TemperatureHighF,TemperatureAvgF,TemperatureLowF,DewpointHighF,DewpointAvgF,DewpointLowF,HumidityHigh,HumidityAvg,HumidityLow,PressureMaxIn,PressureMinIn,WindSpeedMaxMPH,WindSpeedAvgMPH,GustSpeedMaxMPH,PrecipitationSumIn
2013-10-1,82.2,65.8,52.6,58.9,54.1,49.8,93,69,38,30.02,29.91,3,0,7,0.00
2013-10-2,86.7,68.0,53.6,60.5,55.2,50.7,92,68,35,30.03,29.93,3,0,10,0.00
2013-10-3,86.3,69.0,57.3,63.7,59.0,54.1,91,73,42,30.07,29.95,0,0,5,0.00
2013-10-4,89.9,71.0,59.6,64.8,60.3,56.5,92,72,37,30.03,29.93,1,0,6,0.00
2013-10-5,88.8,73.2,62.6,66.2,61.9,59.6,91,71,39,30.03,29.91,1,0,5,0.00
2013-10-6,91.4,74.4,60.5,65.2,60.8,57.2,91,66,34,29.94,29.81,1,0,7,0.00
2013-10-7,73.0,63.7,49.9,65.9,56.2,42.5,92,77,54,30.01,29.66,5,0,11,0.55
2013-10-8,70.4,55.1,43.2,47.8,43.5,40.2,91,68,40,30.24,30.01,1,0,5,0.00
2013-10-9,62.7,53.1,45.4,48.0,44.6,39.8,90,74,44,30.29,30.19,1,0,5,0.06
2013-10-10,55.0,52.6,50.8,53.0,49.2,45.8,93,88,79,30.19,29.99,1,0,5,2.62
2013-10-11,59.5,56.3,52.9,57.8,54.5,50.9,94,94,93,29.98,29.92,1,0,3,1.01
2013-10-12,64.2,60.2,57.3,61.8,58.2,54.7,94,93,87,30.12,29.94,1,0,6,0.53
2013-10-13,58.3,57.3,56.5,56.4,55.5,54.8,94,94,93,30.26,30.12,0,0,3,0.18
2013-10-14,70.3,58.2,52.2,55.7,52.9,49.5,94,84,57,30.28,30.17,1,0,3,0.22
2013-10-15,73.0,57.5,50.2,56.9,51.1,48.0,94,81,49,30.19,30.02,1,0,3,0.24
2013-10-16,72.3,61.1,52.0,58.9,55.0,49.2,93,81,60,30.01,29.83,1,0,4,0.04
2013-10-17,79.0,64.4,58.0,63.6,57.9,47.1,93,80,52,29.83,29.63,3,0,14,0.13
2013-10-18,68.1,56.1,45.1,47.1,41.5,37.8,85,60,36,29.95,29.80,3,1,7,0.01
2013-10-19,62.9,50.8,41.1,54.5,44.8,38.4,92,81,62,29.94,29.70,3,0,7,0.01
2013-10-20,63.5,50.4,37.2,40.4,35.3,31.2,86,59,32,30.03,29.83,3,1,12,0.01
2013-10-21,72.0,50.6,36.3,44.0,38.2,33.4,91,67,33,30.08,29.86,1,0,7,0.00
2013-10-22,60.9,51.4,40.3,47.8,40.5,31.5,87,68,37,29.86,29.77,3,0,7,0.00
2013-10-23,48.8,42.9,37.3,38.9,35.0,31.4,87,74,56,29.86,29.65,2,0,7,0.00
2013-10-24,49.4,41.0,34.9,33.4,30.5,25.2,85,67,41,30.09,29.86,4,1,11,0.00
2013-10-25,52.5,40.4,30.4,33.0,28.4,25.3,83,64,42,30.27,30.08,4,1,12,0.00
2013-10-26,57.8,41.6,27.6,31.0,26.2,22.1,85,59,27,30.26,29.87,5,0,13,0.00
2013-10-27,59.9,48.0,36.3,34.9,31.3,28.3,79,54,33,30.09,29.89,4,1,11,0.00
2013-10-28,65.2,44.1,30.9,39.6,33.4,27.2,89,69,35,30.23,30.08,1,0,3,0.00
2013-10-29,65.5,46.6,33.5,41.2,36.5,30.5,92,71,38,30.35,30.22,0,0,2,0.00
2013-10-30,71.3,56.1,46.1,52.5,47.2,39.3,90,73,49,30.25,30.07,0,0,2,0.01
2013-10-31,68.1,62.1,56.7,58.2,55.2,51.8,90,79,65,30.09,29.65,1,0,11,0.02